User: anonymous   Login
Location: Newark
(35.0317°N, 117.3481°W)
Time: 06:05:43
(UTC+00:00)
Language:

ISS - Orbit

View from above orbital plane
View from above orbital plane
View from above satellite
View from above satellite

Ground track
Ground track

The orbit data is extracted from the following two-line orbital elements,

1 25544U 98067A   19342.51447410  .00016717  00000-0  10270-3 0  9079
2 25544  51.6434 217.0493 0007376  11.4064 348.7253 15.50083154  2297
Epoch (UTC): 08 December 2019 12:20:50
Eccentricity: 0.0007376
inclination: 51.6434°
perigee height: 411 km
apogee height: 421 km
right ascension of ascending node: 217.0493°
argument of perigee: 11.4064°
revolutions per day: 15.50083154
mean anomaly at epoch: 348.7253°
orbit number at epoch: 229

The dashed part of the orbit path shows where the satellite is in the earth's shadow,  

DLR